General Mariano Escobedo International Airport
MMMY : rendu visible

Aérodrome :











RETROUVEZ-NOUS SUR...

 
LOGIN :

S'inscrire | Disclaimer

   EN    FR    IT 

 









Légende :    VFR   VFR Marginal   IFR   IFR Intensif   IFR Très Intensif
Visi : 
Plafond : 
>= 8 km
>= 3000ft
5 à 8 km
1000 à 3000 ft
1500m à 5 km
500 à 1000 ft
800 à 1500m
200 à 500 ft
< 800m
< 200 ft
Symboles :   Orages  Brouillard  Fortes neiges  Fortes précipitations  Vent > 20 kt






- Altitude de l'aérodrome : 1278 ft
- Code IATA : MTY


MMMY - General Mariano Escobedo International

DERNIER METAR :
  • 241540Z 33015G26KT 15SM SCT200 23/13 A2990 RMK 8/008 ISOL AC N

METARs EXPIRÉS :
  • 241440Z 32014G29KT 15SM SCT200 20/13 A2986 RMK SLP/// 5//// 9// 8/008 ISOL AC NW
  • 241340Z 29008KT 15SM FEW200 19/13 A2984 RMK 8/008 ISOL AC

TAF AMD TAF MMMY
Valide du 24 à 15h jusqu'au 25 à 18h UTC


241514Z 2415/2518 32015G30KT P6SM SCT200 TX30/2422Z TN15/2513Z
BECMG 2417/2418 34015KT
FM242100 35012KT P6SM BKN200
BECMG 2502/2503 34008KT
FM250600 13006KT P6SM BKN200
BECMG 2515/2516 14008KT



MET'MAP, la Météo Aéronautique d'un coup d'oeil ! - Copyright ORBIFLY Décembre 2007 - Disclaimer

ORBIFLY MET'MAP TEAM :

Programmation & Développement : Alexandra Zaïnal
Sur une idée originale de : Baudouin d'Aumeries
Assistance à la programmation : Marc-Olivier Méhu
Soutien technique & logistique : Manuel Goepfert

Contact : metmap@orbifly.com




SOURCES & CREDITS :

   NOAA       Earth
Advisory